Flag for India Weather past 2 weeks in New Okhla Industrial Development Authority, Uttar Pradesh, India

Now
82 °F

Partly cloudy.


Feels Like: 87 °F
Forecast: 81 / 97 °F
Wind: 6 mph from East

Location: New Delhi Palam Airport

Current Time: Jul 25, 2014 at 4:58:27 AM

Latest Report: Jul 25, 2014 at 4:00 AM


Visibility: 2 mi

Pressure: 29.56 "Hg

Humidity: 70%

Dew point: 72 °F

Location of New Okhla Industrial Development AuthorityLocation

Historic Weather in New Okhla Industrial Development Authority — Graph

°F

New Okhla Industrial Development Authority temperature yesterday

Maximum temperature yesterday: 90 °F (at 1:00 PM)
Minimum temperature yesterday: 82 °F (at 3:30 AM)
Average temperature yesterday: 86 °F

Past Weeks' High & Low Weather Summary

 TemperatureHumidityPressure
High106 °F (Jul 10, 2:30 PM)100% (Jul 17, 8:00 PM)29.59 "Hg (Jul 17, 8:00 PM)
Low79 °F (Jul 17, 8:00 PM)20% (Jul 11, 3:00 PM)29.39 "Hg (Jul 12, 5:00 PM)
Average89 °F66%29.49 "Hg
* Reported Jul 10 3:30 AM — Jul 25 3:30 AM, New Okhla Industrial Development Authority, Weather by CustomWeather, © 2014

Note: Actual official high and low records may vary slightly from our data, if they occured in-between our weather recording intervals... More about our weather records

Advertising

New Okhla Industrial Development Authority weather history for previous 24 hours

 ConditionsComfort  
Time TempWeatherWind HumidityBarometerVisibility
3:30 AM
Jul 25
82 °FPartly cloudy.8 mph70%29.56 "Hg2 mi
2:30 AM82 °FPartly cloudy.6 mph70%29.56 "Hg2 mi
1:00 AM84 °FPartly cloudy.8 mph70%29.59 "Hg2 mi
12:30 AM84 °FPartly cloudy.7 mph70%29.59 "Hg2 mi
12:00 AM84 °FPartly cloudy.8 mph70%29.59 "Hg2 mi
11:30 PM
Jul 24
84 °FPartly cloudy.9 mph70%29.59 "Hg2 mi
11:00 PM84 °FPartly cloudy.8 mph70%29.59 "Hg2 mi
10:30 PM84 °FPartly cloudy.8 mph70%29.59 "Hg2 mi
10:00 PM84 °FPartly cloudy.9 mph70%29.56 "Hg2 mi
9:30 PM86 °FPartly cloudy.8 mph66%29.56 "Hg2 mi
9:00 PM86 °FPartly cloudy.8 mph66%29.56 "Hg2 mi
8:30 PM86 °FPartly cloudy.9 mph66%29.53 "Hg2 mi
8:00 PM86 °FPartly cloudy.8 mph66%29.53 "Hg2 mi
7:30 PM86 °FBroken clouds.8 mph66%29.53 "Hg3 mi
7:00 PM86 °FBroken clouds.8 mph66%29.53 "Hg3 mi
6:30 PM88 °FBroken clouds.12 mph62%29.50 "Hg3 mi
5:30 PM88 °FBroken clouds.9 mph62%29.50 "Hg3 mi
5:00 PM88 °FBroken clouds.8 mph62%29.50 "Hg3 mi
4:30 PM88 °FBroken clouds.10 mph59%29.50 "Hg3 mi
3:30 PM90 °FBroken clouds.12 mph55%29.53 "Hg3 mi
3:00 PM88 °FBroken clouds.12 mph62%29.53 "Hg3 mi
2:30 PM90 °FBroken clouds.12 mph59%29.53 "Hg2 mi
2:00 PM90 °FBroken clouds.9 mph55%29.53 "Hg2 mi
1:30 PM90 °FBroken clouds.9 mph55%29.53 "Hg2 mi
1:00 PM90 °FBroken clouds.9 mph55%29.53 "Hg2 mi
12:30 PM88 °FBroken clouds.9 mph59%29.56 "Hg2 mi
12:00 PM88 °FBroken clouds.10 mph62%29.56 "Hg2 mi
11:30 AM88 °FBroken clouds.9 mph66%29.56 "Hg2 mi
11:00 AM88 °FBroken clouds.9 mph66%29.56 "Hg2 mi
10:30 AM88 °FBroken clouds.9 mph66%29.56 "Hg2 mi
10:00 AM86 °FBroken clouds.10 mph70%29.56 "Hg2 mi
9:30 AM86 °FBroken clouds.8 mph66%29.56 "Hg2 mi
9:00 AM84 °FBroken clouds.10 mph70%29.53 "Hg2 mi
8:30 AM84 °FFog.8 mph70%29.53 "Hg2 mi
8:00 AM84 °FFog.10 mph84%29.53 "Hg2 mi
7:00 AM82 °FFog.10 mph89%29.53 "Hg2 mi
5:30 AM82 °FFog.7 mph84%29.50 "Hg2 mi
5:00 AM82 °FFog.6 mph84%29.50 "Hg2 mi
4:30 AM82 °FFog.8 mph84%29.50 "Hg2 mi
4:00 AM82 °FFog.9 mph84%29.50 "Hg2 mi
Weather by CustomWeather, © 2014

See weather overviewHow to use our weather pages